Location: Bauerbach
(50.4985°N, 10.3912°E)
Time: 20:28:34
(UTC+00:00)

COSMO-SKYMED 1 - Pass Details

Date: 13 January 2026
Orbit: 577 x 579 km, 97.9° (Epoch: 15 February)

Event Time Altitude Azimuth Distance (km) Brightness Sun altitude
Rises 03:59:30 0° 143° (SE) 2,791 6.4 -30.2°
Reaches altitude 10° 04:01:44 10° 135° (SE) 1,896 5.5 -29.9°
Enters shadow 04:05:22 37° 74° (ENE) 912 3.8 -29.3°
